Fort Sill, OK

4:01 AM CDT on September 18, 2019 (GMT -0500)
Post Army Air Field

Weather History for KFSI - August, 2019

Change the Weather History Date:

Sunday, August 18, 2019

  Actual Average Record
Temperature  
Mean Temperature 87 °F -  
Max Temperature 101 °F 96 °F 107 °F (1952)
Min Temperature 72 °F 71 °F 63 °F (1992)
Cooling Degree Days 22    
Growing Degree Days 37 (Base 50)    
Moisture  
Dew Point 74 °F    
Average Humidity 69    
Maximum Humidity 100    
Minimum Humidity 43    
Precipitation  
Precipitation 0.00 in - - ()
Sea Level Pressure  
Sea Level Pressure 29.77 in    
Wind  
Wind Speed 21 mph (SSE)    
Max Wind Speed 44 mph    
Max Gust Speed 53 mph    
Visibility 10 miles    
Events Rain , Thunderstorm    
Averages and records for this station are not official NWS values.
T = Trace of Precipitation, MM = Missing Value Source: NWS Daily Summary

Daily Weather History Graph

Daily Weather History Graph

Search for Another Location

Airport or City:

Astronomy

Aug. 18, 2019 Rise Set
Actual Time 6:56 AM CDT 8:18 PM CDT
Civil Twilight 6:29 AM CDT 8:44 PM CDT
Nautical Twilight 5:58 AM CDT 9:16 PM CDT
Astronomical Twilight 5:24 AM CDT 9:49 PM CDT
Moon 10:20 PM CDT 9:37 AM CDT
Length of Visible Light 14h 14m
Length of Day
13h 21m
Waning Gibbous, 91% of the Moon is Illuminated
Aug 18
Waning Gibbous
Aug 23
Last Quarter
Aug 30
New
Sep 5
First Quarter
Sep 13
Full

Hourly Weather History & Observations

Time (CDT) Temp. Heat Index Dew Point Humidity Pressure Visibility Wind Dir Wind Speed Gust Speed Precip Events Conditions
12:15 AM 73.4 °F - 68.0 °F 83% 29.85 in 9.0 mi SSE 34.5 mph 47.2 mph N/A Rain , Thunderstorm Light Thunderstorms and Rain
12:33 AM - - - N/A% 29.75 in - North - - N/A Thunderstorm Thunderstorm
12:35 AM - - - N/A% 29.73 in - SE 43.7 mph 52.9 mph N/A Thunderstorm Thunderstorm
12:56 AM 72.9 °F - 68.4 °F 86% 29.73 in 10.0 mi SSE 27.6 mph 49.5 mph N/A   Unknown
1:56 AM 77.0 °F - 64.8 °F 66% 29.74 in 10.0 mi SSE 15.0 mph - N/A   Clear
2:56 AM 78.4 °F - 68.2 °F 71% 29.73 in 10.0 mi SSE 12.7 mph - N/A   Clear
3:56 AM 77.4 °F - 72.9 °F 86% 29.75 in 10.0 mi SSE 13.8 mph - N/A   Clear
4:56 AM 76.3 °F - 74.3 °F 94% 29.75 in 10.0 mi SSE 11.5 mph - N/A   Clear
5:56 AM 74.7 °F - 74.7 °F 100% 29.74 in 10.0 mi South 9.2 mph - N/A   Clear
6:56 AM 74.8 °F - 74.8 °F 100% 29.76 in 10.0 mi SSE 10.4 mph - N/A   Partly Cloudy
7:56 AM 76.8 °F - 75.6 °F 96% 29.77 in 10.0 mi South 11.5 mph - N/A   Clear
9:56 AM 86.2 °F 96.9 °F 76.5 °F 73% 29.81 in 10.0 mi SSE 11.5 mph - N/A   Partly Cloudy
10:56 AM 86.2 °F 97.4 °F 76.8 °F 74% 29.83 in 10.0 mi South 8.1 mph - N/A   Mostly Cloudy
11:56 AM 92.8 °F 108.4 °F 78.3 °F 62% 29.84 in 10.0 mi SSE 12.7 mph - N/A   Scattered Clouds
12:56 PM 94.6 °F 111.2 °F 78.4 °F 59% 29.82 in 10.0 mi SSE 11.5 mph 19.6 mph N/A   Mostly Cloudy
1:56 PM 97.9 °F 116.1 °F 78.8 °F 54% 29.79 in 10.0 mi SSE 17.3 mph 25.3 mph N/A   Clear
2:56 PM 99.1 °F 117.8 °F 78.8 °F 52% 29.77 in 10.0 mi South 16.1 mph 25.3 mph N/A   Clear
4:56 PM 101.7 °F 115.9 °F 75.6 °F 43% 29.74 in 10.0 mi South 13.8 mph - N/A   Clear
5:05 PM 102.2 °F 119.3 °F 77.0 °F 45% 29.74 in 10.0 mi SSE 19.6 mph 25.3 mph N/A   Clear
5:56 PM 100.4 °F 113.6 °F 75.0 °F 44% 29.74 in 10.0 mi SSE 13.8 mph 23.0 mph N/A   Clear
6:56 PM 98.1 °F 110.4 °F 74.8 °F 47% 29.74 in 10.0 mi SSE 17.3 mph - N/A   Clear
7:56 PM 93.0 °F 104.6 °F 75.4 °F 56% 29.76 in 10.0 mi SSE 13.8 mph - N/A   Clear
8:56 PM 90.3 °F 101.0 °F 75.0 °F 61% 29.77 in 10.0 mi SE 12.7 mph - N/A   Clear
9:56 PM 88.2 °F 96.9 °F 74.3 °F 63% 29.79 in 10.0 mi SSE 12.7 mph - N/A   Clear
10:56 PM 86.9 °F 94.5 °F 73.6 °F 64% 29.82 in 10.0 mi SSE 10.4 mph - N/A   Clear
11:56 PM 85.1 °F 91.8 °F 72.9 °F 67% 29.83 in 10.0 mi SSE 12.7 mph - N/A   Partly Cloudy